Other Public Products
Issued by NWS Grand Forks, ND

Home | Current Version | Previous Version | Text Only | Print | Product List | Glossary On
Versions: 1 2 3 4 5 6 7 8 9 10 11 12 13 14 15 16 17 18 19 20 21 22 23 24 25 26 27 28 29 30 31 32 33 34 35 36 37 38 39 40 41 42 43 44 45 46 47 48 49 50
000
FPUS83 KFGF 290510
OPUFGF
PRAIRIE TO PINES WEATHER ROUNDUP
NATIONAL WEATHER SERVICE EASTERN NORTH DAKOTA/GRAND FORKS ND
1200 AM CDT MON AUG 29 2016

 **SATELLITE DATA USED TO AUGMENT SKY COVER AT AUTOMATED STATIONS**
 *****  WEATHER ACROSS EASTERN NORTH DAKOTA  *****

CITY           SKY/WX    TMP DP  RH WIND       PRES   REMARKS
GRAND FORKS    CLOUDY    70  61  73 SE6       29.95R
GRAND FORKS AF CLOUDY    69  62  78 SE5       29.97R
GRAND CITY NWS   N/A     68 N/A N/A SE5         N/A
BUXTON           N/A     70  67  90 SE8         N/A
DEVILS LAKE    PTCLDY    72  70  94 N15G26    30.00R
FARGO          CLOUDY    78  71  79 NE21G29   29.97R
WAHPETON ARPT  PTCLDY    77  70  78 S14       29.98F
$$

 *****  WEATHER ACROSS CENTRAL AND WESTERN NORTH DAKOTA  *****

CITY           SKY/WX    TMP DP  RH WIND       PRES   REMARKS
JAMESTOWN      CLEAR     65  64  97 S3        29.97R
BISMARCK       CLEAR     75  57  53 N10       30.02R
MINOT          CLEAR     66  54  65 NW10      30.08R
MINOT AFB      CLEAR     63  54  72 NW6       30.07R
GARRISON         N/A     68  56  65 N14       30.07R
WILLISTON      PTCLDY    66  48  52 N15       30.11R
DICKINSON      CLOUDY    70  47  43 NE15      30.09R
HETTINGER      CLEAR     73  48  41 N16       30.09R
$$

 *****  OTHER OBSERVATIONS NORTHEAST NORTH DAKOTA  *****

CITY           SKY/WX    TMP DP  RH WIND       PRES   REMARKS
WALHALLA       NOT AVBL
LANGDON        FAIR      68  64  88 NE13G18   30.03F
CAVALIER       FAIR      68  66  94 N3        29.99R
GRAFTON        FAIR      68  68 100 E8        29.99R
CANDO          NOT AVBL
FORT TOTTEN    NOT AVBL
ROLLA          CLOUDY    68  63  83 N10       30.05R
RUGBY          FAIR      68  64  88 N8        30.03R
 ***** THE ABOVE OBSERVATIONS ARE NON NWS ARE NOT QUALITY
        CONTROLLED AND MAY MIS-REPORT RAIN FOR SNOW...
$$

 *****  OTHER OBSERVATIONS SOUTHEAST NORTH DAKOTA *****

CITY           SKY/WX    TMP DP  RH WIND       PRES   REMARKS
COOPERSTOWN    NOT AVBL
VALLEY CITY    FAIR      73  73 100 S10       29.99R
OAKES            N/A    N/A N/A N/A MISG        N/A
GWINNER        FAIR      75  72  88 SW9       29.98R
SHEYENNE NWR     N/A     76  71  84 S7        29.95S
BUFFALO          N/A     75  71  86 S9          N/A
WYNDMERE       NOT AVBL
 ***** THE ABOVE OBSERVATIONS ARE NON NWS ARE NOT QUALITY
       CONTROLLED AND MAY MIS-REPORT RAIN FOR SNOW...
$$

  *****  WEATHER ACROSS NORTHERN MINNESOTA  *****

CITY           SKY/WX    TMP DP  RH WIND       PRES   REMARKS
FLAG ISLAND    CLOUDY    66  63  88 SE3       30.01S
WARROAD        CLOUDY    64  61  88 SE8       30.02F
ROSEAU         CLOUDY    68  63  83 E5        29.99F
HALLOCK        CLOUDY    72  66  83 SE8       29.97R
THF RVR FALLS  TSTM      69  63  81 CALM      30.00F
HALSTAD          N/A     70  64  81 E6          N/A
FOSSTON        TSTM      66  61  82 S14G20    29.99S
BAUDETTE       CLOUDY    63  61  93 SE13      30.04S
WASKISH        TSTM      64  63  94 E15G22    30.07F
CROOKSTON      CLOUDY    70  63  78 SE8       29.97F
$$
  *****  WEATHER ACROSS CENTRAL AND WEST MINNESOTA  *****

CITY           SKY/WX    TMP DP  RH WIND       PRES   REMARKS
BEMIDJI        LGT RAIN  71  69  95 S13       30.00F
PARK RAPIDS    CLOUDY    75  68  78 S16       30.03F
WADENA         CLOUDY    73  66  78 S12G20    30.04F
DETROIT LAKES  TSTM      75  70  83 S14         N/A
MOORHEAD       CLOUDY    79  72  78 S9G17     29.96S
FERGUS FALLS   PTCLDY    75  73  94 S12       30.02S
ELBOW LAKE     FAIR      74  72  91 S17       30.03F
MORRIS MN      CLEAR     73  72  94 SE9       30.04S
STAPLES        CLOUDY    72  66  83 S12G17    30.05F
WHEATON        PTCLDY    77  73  88 SE10G17   30.02S
$$
  *****  WEATHER ELSEWHERE ACROSS MINNESOTA  *****

CITY           SKY/WX    TMP DP  RH WIND       PRES   REMARKS
DULUTH         CLOUDY    64  63  96 E12       30.14F
INTRNTL FALLS  LGT RAIN  63  60  90 SE15G22   30.03S
ELY            CLOUDY    64  59  82 SE13      30.13S
CLOQUET        FOG       64  63  94 E5        30.14F VSB 3/4
BRAINERD       PTCLDY    71  68  90 SE9       30.08F
HIBBING        CLOUDY    64  61  90 SE8       30.12S
ALEXANDRIA     CLEAR     74  69  85 S13       30.08F
SAINT CLOUD    CLEAR     70  69  97 SE6       30.10F
MINNEAPOLIS    PTCLDY    73  67  81 SE6       30.13S
$$

  *****  WEATHER ACROSS SOUTH DAKOTA  *****

CITY           SKY/WX    TMP DP  RH WIND       PRES   REMARKS
SIOUX FALLS    PTCLDY    76  65  68 S14       30.10R
BROOKINGS        N/A    N/A N/A N/A MISG        N/A
WATERTOWN      CLEAR     75  70  84 S12       30.05S
HURON          CLEAR     77  69  76 S10       30.02R
SISSETON         N/A     75  71  87 S10       29.98S
ABERDEEN       CLEAR     76  67  73 S12       29.98S
MITCHELL       CLEAR     78  71  79 S13       30.05S
PIERRE         CLEAR     74  61  63 S12       29.98R
MOBRIDGE       CLEAR     69  58  67 SE3       29.96R
RAPID CITY     CLEAR     63  51  65 CALM      30.07R
$$

  *****  SOME WEATHER IN NEARBY STATES *****

CITY           SKY/WX    TMP DP  RH WIND       PRES   REMARKS
GLASGOW MT     PTCLDY    63  48  58 N7        30.16R
GREAT FALLS MT CLEAR     60  44  55 NE12      30.22R
CHEYENNE WY    CLOUDY    63  47  55 SW13      30.29F
SCOTTSBLUFF NE PTCLDY    63  56  78 NE7       30.15R
OMAHA NE       CLOUDY    73  66  78 SE3       30.14R
DES MOINES IA  CLOUDY    72  67  84 E8        30.17R
DAVENPORT IA   CLOUDY    71  69  93 E6        30.19R
CHICAGO IL     CLOUDY    72  68  87 E5        30.22S
EAU CLAIRE WI  CLEAR     67  65  93 CALM      30.17R
LA CROSSE WI   PTCLDY    71  69  93 E6        30.17R
$$

  *****  SOME NATIONAL WEATHER *****

CITY           SKY/WX    TMP DP  RH WIND       PRES   REMARKS
LA GUARDIA NY  CLOUDY    77  66  68 S10       30.16F
RALEIGH NC     CLOUDY    76  69  79 NE5       30.17R
ATLANTA GA     PTCLDY    81  66  60 NE12      30.12S
NEW ORLEANS LA MOCLDY    82  74  76 NE6       29.98F
OKLAHOMA CITY  PTCLDY    72  67  84 S3        30.10S
ALBUQUERQUE NM PTCLDY    64  42  44 E3        30.25R
SALT LAKE CITY CLEAR     75  32  20 S7        30.15S
LOS ANGELES CA CLEAR     68  61  78 SW5       29.97R
BOISE ID       CLEAR     73  39  29 CALM      30.04F
SEATTLE WA     MOCLDY    61  52  72 N6        30.06R
$$

*** WEATHER ACROSS MANITOBA...SASKATCHEWAN AND ONTARIO ***
                ***ONTARIO***

CITY           SKY/WX    TMP DP  RH WIND       PRES   REMARKS
GERALDTON      CLEAR     57  55  94 N2        30.22R
THUNDER BAY    CLEAR     55  55 100 CALM      30.20F
SIOUX LOOKOUT  NOT AVBL
TORONTO        CLEAR     68  59  73 NW12      30.20R
BIG TROUT LK   CLEAR     64  57  77 S9        30.06F
PICKLE LAKE    NOT AVBL
DRYDEN         CLEAR     63  59  88 E5        30.08F
KENORA         PTCLDY    64  63  94 SE8       30.05S
$$
                *** MANITOBA***

CITY           SKY/WX    TMP DP  RH WIND       PRES   REMARKS
BRANDON        PTCLDY    59  57  94 W6        30.03R
DAUPHIN        CLEAR     63  57  82 W12       30.00R
ISLAND LAKE    NOT AVBL
PILOT MOUND      N/A     63  59  88 W9          N/A
THE PAS        CLEAR     57  46  67 W20G26    29.95R
THOMPSON       MOCLDY    63  57  82 VRB2      29.82S
WINNIPEG       MOCLDY    70  64  83 S3        29.96S
LYNN LAKE      CLOUDY    52  48  87 MISG      29.80S
CHURCHILL      FOG       48  48 100 E16       29.94F VSB 1
GILLAM         LGT RAIN  64  59  82 S6        29.92R
$$
                ***SASKATCHEWAN***

CITY           SKY/WX    TMP DP  RH WIND       PRES   REMARKS
ESTEVAN        CLEAR     57  48  72 NW10      30.12R
KINDERSLEY     CLEAR     45  43  93 SW3       30.22R
LLOYDMINSTER   CLEAR     39  37  93 W9        30.19R
PRINCE ALBERT  MOCLDY    52  43  71 W8        30.12R
REGINA         PTCLDY    50  45  81 NW2       30.17R
YORKTON        CLEAR     54  48  82 W8        30.10R  C1F1C2F2C3F3C4F4C5F5C6F6C7F7C8F8C9F9CaFaCbFbCcFcCdFdCe!



USA.gov is the U.S. government's official web portal to all federal, state and local government web resources and services.